Simultaneous Nadir Overpasses (SNOs) Predictions

Prediction of SNOs between AQUA and METOP-A Satellite Orbit:

Table of predicted SNOs for the next 14.0 days since TLE Epoch: 6/10/2016
Index Date (AQUA) Time (AQUA) Lat,Lon (AQUA) SZA (AQUA ) Date (METOP-A) Time (METOP-A) Lat,Lon (METOP-A) SZA (METOP-A ) Distance(km) Time Diff (sec)
1 06/11/2016 06:51:45 73.85, 71.28 50.73 06/11/2016 06:50:33 73.82, 71.27 50.72 3.21 72
2 06/11/2016 07:41:11 -73.89,-121.16 129.23 06/11/2016 07:41:13 -73.89,-121.23 129.22 2.12 2
3 06/11/2016 08:30:40 73.95, 46.33 50.84 06/11/2016 08:31:52 73.94, 46.24 50.83 2.92 72
4 06/14/2016 02:25:58 73.86, 137.70 50.59 06/14/2016 02:24:53 73.87, 137.81 50.61 3.77 65
5 06/14/2016 03:15:24 -73.89, -54.74 129.37 06/14/2016 03:15:34 -73.90, -54.80 129.37 1.88 10
6 06/14/2016 04:04:58 74.22, 112.16 50.98 06/14/2016 04:06:08 74.20, 113.27 50.91 33.73 70
7 06/16/2016 22:00:11 73.83,-155.80 50.46 06/16/2016 21:59:16 73.82,-155.90 50.47 3.24 55
8 06/16/2016 22:49:38 -73.91, 11.66 129.45 06/16/2016 22:49:56 -73.90, 11.62 129.46 1.55 18
9 06/16/2016 23:39:17 74.50, 177.93 51.18 06/16/2016 23:40:24 74.49,-179.57 51.08 74.35 67
10 06/19/2016 17:34:25 73.86, -89.43 50.45 06/19/2016 17:33:37 73.87, -89.38 50.47 1.95 48
11 06/19/2016 18:23:52 -73.94, 78.04 129.47 06/19/2016 18:24:18 -73.91, 78.04 129.50 3.76 26
12 06/22/2016 13:08:37 73.85, -22.96 50.45 06/22/2016 13:07:58 73.87, -22.98 50.47 1.84 39
13 06/22/2016 13:58:04 -73.93, 144.51 129.47 06/22/2016 13:58:39 -73.91, 144.45 129.49 2.82 35




NCC Satellite Simultaneous Nadir Overpasses (SNOs) Prediction Service
